SCP
0 0 0 0 0 0 0 0 0 0 0 0 0 0 0 0 0 0 0 0 0 0 0 0 0 0 0 0 0 0 0 0 0 0 0 0 0 0 0 0 0 0 0 0 0 0 0 0 0 0 0 0 0 0
0 0 0 0 0 0 0 0 0 0 0 0 0 0 0 0 0 0 0 0 0 0 0 0 0 0 0 -0 0 0 0 0 0 0 0 0 -0 0 0 0 0 0 0 0 0 0 0 0 0 0 0 0 0 -0
0 0 0 0 0 0 0 0 0 0 0 0 0 0 0 0 0 0 0 0 0 0 0 0 0 0 0 0 0 0 0 0 0 0 0 0 0 0 0 0 0 0 0 0 0 0 0 0 0 -0 0 -0 0 0
0 0 0 0 0 0 0 0 0 0 0 0 0 0 0 0 0 0 0 0 0 0 0 0 0 0 0 0 0 -0 -0 0 0 0 0 0 0 0 0 0 0 0 -0 0 0 0 0 0 -0 -0 0 -0 -0 0
0 0 0 0 0 0 0 0 0 0 0 0 0 0 0 0 0 0 0 0 0 0 0 0 0 0 0 0 0 0 0 0 0 0 0 0 0 0 0 0 -0 0 0 0 0 0 0 0 -0 -0 -0 -0 0 0
0 0 0 0 0 0 0 0 0 0 0 0 0 0 -0 -0 0 0 0 0 0 0 0 0 0 0 0 0 0 0 0 0 0 0 0 0 0 0 0 -0 -0 -0 -0 -0 -0 0 0 0 0 0 -0 -0 0 0
0 0 0 0 0 0 0 0 0 0 0 0 0 -0 -0 -0 0 0 0 0 0 0 0 0 0 0 0 0 0 0 0 0 0 0 0 0 0 0 -0 0 0 0 0 0 0 0 0 0 0 -0 -0 0 0 0
0 0 0 0 0 0 0 0 0 0 -0 -0 -0 -0 -0 0 0 0 0 0 0 0 0 0 0 0 0 0 0 0 0 0 0 0 0 0 0 0 -0 -0 -0 0 0 0 0 -0 0 0 -0 -0 -0 0 0 0
0 0 0 0 0 0 0 0 0 0 -0 0 -0 -0 0 0 0 0 0 0 0 0 0 0 0 0 0 0 0 0 0 0 0 0 0 0 0 -0 -0 0 0 0 0 0 0 -0 -0 -0 0 0 0 0 0 0
0 0 0 0 0 0 0 0 0 0 0 0 0 0 0 0 0 0 0 0 0 0 0 0 0 0 0 0 0 0 0 0 0 0 0 -0 -0 -0 -0 -0 0 -0 -0 -0 0 0 -0 -0 0 0 0 0 0 0
0 0 0 0 0 0 0 0 0 0 0 0 0 0 0 -0 0 0 0 0 0 0 0 0 0 0 0 0 0 0 0 0 0 0 0 0 -0 -0 0 0 -0 -0 0 0 -0 -0 0 0 0 0 0 0 0 0
0 0 0 0 0 0 0 0 0 0 0 0 0 0 0 0 0 0 0 0 0 0 0 0 0 0 0 0 0 0 0 0 0 0 0 0 -0 0 0 0 0 -0 0 -0 -0 0 0 0 0 0 0 0 0 0
0 0 0 0 0 0 0 0 0 0 0 -0 0 0 0 0 0 -0 -0 -0 0 0 0 0 0 0 0 0 0 0 0 0 0 0 0 -0 0 0 0 0 0 -0 0 -0 0 0 0 0 0 0 0 0 0 0
0 0 0 0 0 0 0 0 0 0 -0 0 0 0 0 0 0 -0 0 0 0 0 0 0 0 0 0 0 0 0 0 0 0 0 0 0 -0 0 -0 0 0 0 0 0 0 -0 -0 0 0 0 0 -0 -0 -0
0 0 0 0 0 0 0 0 0 -0 0 0 0 0 0 0 -0 -0 0 0 0 0 0 0 0 0 0 0 0 0 0 0 0 0 0 -0 -0 0 0 0 0 0 0 -0 -0 0 0 0 0 -0 -0 -0 -0 -0
0 0 0 0 0 0 0 0 0 0 0 -0 -0 0 -0 -0 0 -0 -0 0 0 0 0 0 0 0 0 0 0 0 0 0 0 0 0 -0 -0 0 0 0 0 0 0 0 0 0 0 0 -0 -0 -0 -0 -0 -0
0 0 0 0 0 0 0 0 0 0 0 0 0 -0 0 -0 -0 0 -0 0 0 0 0 0 0 0 0 0 0 0 0 0 0 0 0 0 0 0 0 0 0 0 0 0 0 0 -0 -0 -0 -0 -0 -0 -0 -0
0 0 0 0 0 0 0 0 0 0 0 0 -0 -0 -0 0 -0 -0 0 -0 -0 0 0 0 0 0 0 0 0 0 0 0 0 -0 0 -0 0 -0 -0 0 0 0 0 0 0 -0 -0 -0 -0 -0 -0 -0 -0 -0
0 0 0 0 0 0 0 0 0 0 0 -0 -0 0 -0 -0 -0 -0 0 -0 -0 0 0 0 0 0 0 0 0 -0 0 0 0 0 0 -0 0 -0 -0 -0 0 0 0 0 0 -0 -0 -0 -0 -0 -0 -0 -0 0
0 0 0 0 0 0 0 0 0 0 0 0 0 -0 -0 -0 -0 -0 -0 -0 0 0 -0 0 0 0 0 0 0 0 0 0 0 0 -0 -0 -0 -0 0 -0 -0 0 0 0 0 -0 -0 -0 -0 0 -0 -0 -0 0
0 0 0 0 0 0 0 0 0 0 0 -0 -0 -0 0 -0 -0 -0 -0 -0 0 -0 0 0 0 0 0 0 0 0 0 0 0 0 0 0 -0 -0 -0 -0 -0 -0 0 0 0 -0 -0 0 0 0 0 -0 -0 0
0 0 0 0 0 0 0 0 0 0 -0 0 0 -0 -0 -0 -0 -0 -0 -0 -0 0 0 0 0 0 0 0 0 0 0 0 0 0 0 0 -0 -0 -0 -0 -0 -0 -0 -0 0 0 0 0 0 -0 -0 -0 0 0
0 0 0 0 0 0 0 0 0 -0 -0 -0 -0 0 0 -0 -0 -0 0 0 0 0 0 0 0 -0 0 0 0 0 0 0 0 0 0 0 0 0 0 0 0 0 0 -0 0 -0 -0 -0 0 0 0 0 -0 -0
0 0 0 0 0 0 0 0 0 0 0 0 0 0 -0 -0 -0 -0 0 0 0 0 0 0 0 0 0 -0 -0 0 0 0 0 0 0 0 -0 0 0 -0 0 0 0 0 0 0 -0 -0 -0 -0 -0 -0 -0 -0
0 0 0 0 0 0 0 0 0 0 0 0 0 0 0 -0 -0 -0 0 0 0 0 0 -0 0 0 0 0 -0 0 0 0 0 0 0 0 0 -0 0 0 0 0 0 0 0 -0 -0 -0 -0 -0 -0 -0 -0 -0
0 0 0 0 0 0 0 0 0 0 0 0 0 0 -0 -0 0 0 0 0 0 0 0 0 0 -0 0 0 0 -0 -0 -0 0 -0 0 0 -0 -0 0 0 0 0 0 0 0 0 0 0 -0 -0 -0 -0 -0 -0
0 0 0 0 0 0 0 0 0 0 0 -0 0 0 0 -0 0 0 0 -0 0 0 0 0 0 0 -0 -0 0 0 0 0 0 0 -0 -0 -0 -0 -0 0 0 0 0 0 0 0 0 0 0 0 0 0 0 0
0 0 0 0 0 0 0 0 -0 -0 -0 -0 0 0 -0 -0 0 0 0 0 0 0 0 0 0 0 0 0 0 0 0 -0 0 0 -0 -0 0 0 -0 0 0 0 0 0 0 0 0 0 0 0 0 0 0 0
0 0 0 -0 0 0 0 0 0 0 0 -0 -0 -0 -0 0 0 0 0 0 0 0 0 0 0 0 0 -0 0 0 -0 -0 -0 -0 -0 0 -0 -0 -0 -0 0 0 0 0 0 0 0 0 0 0 0 0 0 -0
0 0 0 0 0 0 0 0 0 0 0 0 0 0 0 0 0 0 0 0 0 0 0 0 0 0 0 0 0 0 0 -0 -0 0 -0 -0 -0 -0 -0 -0 -0 -0 -0 -0 -0 -0 -0 0 0 -0 -0 -0 -0 -0
0 0 0 0 0 0 0 0 0 -0 -0 0 0 0 0 0 0 0 0 0 0 0 0 0 0 0 0 0 0 0 0 0 0 0 0 0 -0 -0 -0 -0 0 0 -0 -0 -0 -0 -0 -0 -0 0 0 0 0 -0
0 0 0 0 0 0 0 0 0 -0 -0 0 0 0 0 0 0 0 -0 -0 0 0 0 0 0 0 -0 -0 -0 -0 -0 0 0 -0 -0 -0 -0 -0 0 0 0 -0 -0 -0 -0 -0 0 0 0 -0 0 0 0 0
0 0 0 0 0 0 0 0 -0 -0 -0 0 0 -0 -0 0 -0 -0 0 -0 0 -0 -0 -0 0 -0 -0 0 0 0 0 0 0 0 0 0 0 -0 0 0 0 -0 -0 0 -0 -0 0 0 0 0 0 0 0 -0
Wind_Speed_500mb
46 46 47 46 47 45 44 44 45 43 40 43 48 44 36 34 38 44 51 39 41 40 71 60 62 52 38 30 17 17 6 12 5 8 6 9 9 7 4 6 10 6 6 9 10 13 22 2 11 28 13 51 50 72
47 47 47 48 49 46 46 46 45 41 39 44 49 44 37 37 43 42 51 42 49 46 73 79 81 78 76 81 71 43 23 8 21 6 5 4 8 6 16 9 11 9 13 5 10 9 6 12 24 37 43 44 55 60
48 49 49 50 50 49 47 46 43 38 42 46 50 45 37 37 42 40 51 48 45 47 63 47 46 56 53 54 51 43 36 35 26 44 11 8 13 7 8 11 9 10 15 8 6 13 20 28 33 42 32 44 55 71
49 50 50 50 51 50 49 46 41 40 46 45 51 47 40 41 45 44 50 51 51 31 18 39 38 52 60 51 52 62 71 50 38 33 17 8 9 19 6 11 11 15 9 8 20 31 32 57 45 29 43 50 48 53
53 51 50 50 50 52 50 45 43 43 46 46 52 48 43 44 47 50 54 51 22 24 13 44 78 37 31 30 43 55 64 70 48 16 12 11 9 8 8 6 28 22 25 16 20 40 27 44 43 38 44 52 55 66
55 53 52 51 49 53 49 47 43 45 47 48 52 50 47 48 47 45 20 13 11 16 16 10 30 47 24 17 23 37 55 63 47 17 12 18 27 15 8 15 20 38 47 62 46 73 57 73 70 49 44 54 69 73
57 55 54 52 50 50 45 45 42 44 51 53 54 53 55 55 48 40 18 12 26 34 13 13 13 14 37 18 16 22 40 41 38 20 18 24 21 21 9 33 39 43 48 56 65 66 52 62 50 38 40 55 71 65
56 55 53 47 51 45 41 42 40 45 54 55 55 56 61 48 33 27 28 17 19 38 14 7 10 14 8 8 9 16 18 30 24 17 12 9 15 15 14 41 60 66 70 79 84 72 72 72 54 63 47 54 60 37
52 52 47 43 48 37 41 39 38 48 53 56 57 53 28 5 2 1 14 20 44 34 8 9 5 8 10 11 12 10 12 6 14 9 8 16 10 15 20 16 45 53 45 54 46 39 32 19 31 44 38 28 24 49
48 46 39 42 39 35 40 36 37 47 53 51 40 10 5 4 32 40 4 5 4 9 15 8 11 9 12 8 8 8 10 5 5 9 9 7 12 57 55 53 54 62 70 63 51 47 29 38 46 44 40 20 19 39
46 39 41 37 34 33 37 34 36 41 42 24 18 9 23 39 12 4 4 5 5 7 14 16 22 15 19 10 8 13 3 4 5 3 5 5 7 8 13 17 16 28 41 36 50 41 40 49 45 43 25 18 13 29
47 44 35 32 32 30 30 28 20 26 30 36 36 38 19 8 4 3 4 6 7 7 9 9 15 25 17 18 7 8 5 4 9 4 5 6 7 18 19 37 57 46 46 22 18 37 40 34 28 32 27 37 39 37
46 40 29 33 27 25 20 11 16 26 36 28 6 7 6 5 5 6 4 6 5 8 13 20 17 12 11 15 9 5 6 7 5 5 6 8 12 26 66 80 74 52 43 16 10 22 31 20 15 8 30 51 57 53
43 29 30 28 21 18 13 12 16 23 25 6 6 10 7 7 9 9 8 8 17 29 49 51 31 11 10 6 4 5 4 4 6 6 8 4 44 71 75 63 49 38 19 18 24 20 22 15 9 21 50 69 67 43
25 24 28 17 17 12 12 12 18 23 11 8 7 9 10 18 17 23 32 30 50 47 47 33 19 11 5 7 5 6 5 7 6 7 10 46 69 61 36 24 20 14 8 10 30 40 32 24 22 38 45 53 40 30
20 21 15 10 16 18 18 23 26 17 7 9 13 11 19 12 18 20 34 35 42 32 41 15 6 6 6 7 6 5 6 6 7 9 54 64 41 32 33 35 32 28 34 39 40 40 38 35 42 54 49 33 30 35
20 25 11 19 23 18 21 24 7 10 9 10 14 24 35 38 34 38 34 49 39 27 4 5 6 4 8 6 6 5 6 15 42 60 53 36 31 35 34 38 40 41 45 46 47 47 54 57 52 43 41 41 37 26
30 20 11 15 15 11 9 6 5 9 13 19 13 13 18 28 35 39 36 33 21 15 13 4 8 5 5 9 8 8 35 53 56 44 41 39 35 39 44 46 46 45 48 52 56 54 45 39 43 44 40 33 29 25
26 15 12 13 8 3 3 6 10 9 19 17 23 31 28 29 34 30 29 26 22 20 14 12 6 5 5 7 20 56 58 42 40 35 38 44 57 56 54 62 57 55 57 55 51 48 44 42 40 31 27 23 21 21
19 15 13 17 11 5 3 7 9 12 11 8 21 20 18 18 27 17 16 18 13 5 7 7 5 12 22 50 52 57 49 44 38 31 33 31 32 39 42 53 54 51 52 48 49 49 46 46 41 36 29 21 16 22
13 10 21 24 17 13 6 7 10 14 15 13 22 18 12 11 9 13 15 18 8 7 6 11 35 47 44 47 44 31 23 29 21 24 24 28 25 24 31 35 38 39 42 43 41 38 34 35 31 26 24 24 27 30
21 20 18 26 15 9 11 14 12 14 12 15 17 9 7 4 5 8 12 14 5 6 14 32 44 46 45 41 33 15 15 17 29 28 22 19 20 21 24 23 25 28 26 26 27 28 26 24 21 20 24 28 28 27
14 12 3 7 7 8 11 9 9 8 6 7 9 3 4 0 4 6 6 6 6 19 27 33 36 29 29 38 34 27 28 23 19 16 21 29 26 14 13 16 17 13 14 16 14 19 22 22 21 23 25 28 31 25
17 9 7 9 13 7 6 8 10 9 7 4 3 3 1 1 3 4 3 5 13 19 29 34 36 35 29 41 42 37 31 28 28 26 13 18 21 27 20 18 15 13 9 10 11 12 18 17 16 18 19 23 22 19
7 8 7 7 8 6 6 6 7 6 5 5 4 2 1 3 1 1 2 8 18 21 25 30 34 37 39 36 33 32 29 28 29 27 26 23 17 14 19 16 13 11 7 9 10 10 10 13 12 11 13 9 14 15
8 11 14 15 9 8 6 6 4 5 4 2 3 4 6 2 1 2 2 11 13 18 22 26 32 38 37 35 28 30 24 23 24 25 23 18 14 11 9 16 19 16 14 6 10 5 9 12 6 11 13 9 6 17
5 9 14 15 8 6 8 13 9 4 3 4 3 2 2 2 5 1 3 5 13 17 16 16 22 26 30 28 21 18 13 17 17 20 22 22 21 20 21 18 17 16 19 15 5 9 10 6 3 10 16 17 17 28
10 6 10 10 13 11 3 5 5 5 4 4 2 1 3 5 7 5 4 7 7 11 15 20 21 19 26 29 18 14 10 12 14 18 21 21 23 23 23 20 13 9 9 10 12 17 19 18 18 18 22 34 34 36
9 8 4 6 8 10 7 5 5 4 3 4 6 4 6 5 12 14 9 6 9 13 13 12 21 24 21 27 22 21 15 15 14 9 14 13 11 18 25 24 14 11 12 12 15 16 18 22 25 23 29 33 33 34
10 13 12 9 6 7 5 5 5 5 3 7 9 9 8 13 15 14 12 11 12 13 16 18 19 18 21 21 21 23 17 13 10 15 16 17 14 14 22 23 21 19 15 11 12 13 14 17 20 23 30 29 29 33
7 7 9 7 4 2 11 18 15 14 8 7 8 14 12 9 10 8 7 8 9 9 8 14 19 20 17 17 18 16 18 15 5 12 17 15 11 10 17 21 18 14 13 11 11 14 16 17 18 20 21 24 26 24
11 14 11 4 4 20 22 6 4 4 6 5 6 7 9 6 6 8 11 6 3 3 10 11 12 15 14 16 19 20 18 16 12 2 11 13 9 9 8 11 14 18 18 16 17 22 22 20 19 19 19 18 17 17
11 8 9 9 9 11 13 7 3 4 4 3 6 13 9 5 7 10 16 17 7 6 9 9 6 15 17 14 14 16 18 17 13 9 5 13 12 5 2 3 3 9 11 13 14 14 12 10 9 8 8 9 11 12
Wind_Direction_500mb
320 323 323 321 320 318 317 316 318 319 323 323 321 320 317 321 321 316 309 306 284 276 281 272 270 259 264 240 256 268 275 240 226 219 222 230 213 238 306 317 285 230 246 232 221 238 257 354 297 214 283 316 317 316
316 318 319 317 317 318 316 315 315 317 321 319 319 318 320 321 318 315 309 309 299 276 272 281 279 274 264 263 260 259 253 212 215 230 237 278 303 254 242 243 208 233 203 233 224 235 245 250 235 284 296 293 301 302
311 313 313 314 317 317 314 311 315 316 320 314 316 315 314 318 318 314 305 305 301 298 300 278 279 300 287 272 265 252 251 241 242 246 253 232 232 167 211 229 237 237 212 247 276 264 244 292 272 294 297 323 303 296
306 307 309 312 315 314 310 311 311 312 311 315 315 314 312 311 311 310 302 298 294 278 275 294 296 286 290 272 258 252 252 244 244 234 228 231 224 201 232 237 233 249 187 226 255 268 280 272 276 256 299 312 307 298
301 303 306 309 310 311 309 309 308 307 310 313 314 313 311 311 315 308 297 303 268 232 283 293 301 318 301 286 268 255 248 240 239 229 227 237 229 237 226 252 256 231 244 234 252 261 244 273 278 284 288 308 301 308
297 301 304 305 304 309 309 307 307 308 311 310 310 310 311 311 313 312 316 210 243 326 288 300 296 298 317 325 299 255 241 232 225 213 223 229 229 205 242 255 250 235 239 241 249 264 263 270 278 286 285 304 307 306
295 298 300 302 302 308 304 306 306 314 313 311 311 311 307 303 292 264 235 276 295 303 279 296 281 280 310 325 309 256 230 217 216 226 225 241 223 220 245 254 258 254 265 268 269 274 272 269 270 278 294 287 298 304
295 296 297 299 304 304 302 302 306 313 313 313 314 311 306 300 290 256 274 258 263 274 256 268 274 304 292 280 260 239 220 215 215 221 212 216 222 214 249 243 259 260 261 263 263 262 258 269 272 291 290 280 289 201
294 296 298 292 303 300 303 303 309 313 314 318 317 315 305 330 316 63 222 242 274 270 258 242 257 283 298 287 281 265 238 234 227 208 215 194 185 223 244 255 252 256 254 258 269 272 274 280 282 281 293 271 255 169
295 294 290 296 301 299 301 302 308 310 315 324 325 326 280 1 309 298 277 239 218 223 232 256 220 254 266 263 268 281 219 239 251 225 194 225 244 246 250 257 269 282 280 271 263 256 270 274 284 278 272 256 141 156
296 291 287 288 292 294 300 305 313 319 325 345 338 294 303 313 306 256 256 235 217 257 232 246 238 255 262 233 236 226 243 256 260 216 229 253 270 262 256 235 281 303 316 312 248 245 253 262 268 285 251 177 163 173
292 287 282 281 286 292 299 314 324 316 331 324 313 298 304 300 283 50 260 303 223 259 263 249 263 256 257 236 241 236 252 229 249 161 246 265 250 238 259 317 318 316 319 334 225 230 242 256 295 316 221 204 181 159
285 282 272 279 273 286 298 295 321 327 324 325 300 273 278 266 291 205 239 287 261 248 255 277 293 268 273 247 246 233 248 256 348 245 244 237 300 308 318 315 308 304 301 267 200 200 218 242 310 350 164 167 163 161
283 266 271 273 268 277 267 278 312 326 342 299 272 280 182 240 242 204 196 214 275 274 286 290 288 258 258 258 263 255 252 272 264 236 246 339 313 303 301 298 291 290 275 247 231 211 174 205 212 161 164 163 160 163
262 260 275 264 277 250 240 273 301 311 314 264 243 245 237 250 274 283 289 284 290 295 295 291 271 250 263 277 236 269 246 256 265 289 308 308 310 321 343 310 283 292 283 171 153 155 161 175 169 154 156 143 127 172
244 263 261 218 201 221 257 287 293 300 235 238 232 256 265 291 290 297 299 292 322 316 310 288 276 278 272 302 295 323 282 282 299 306 301 307 329 29 44 68 88 108 125 131 142 140 136 140 140 135 134 130 140 146
231 236 188 212 234 249 277 290 274 208 239 233 244 246 262 276 270 285 300 305 318 311 279 294 279 296 314 293 293 329 304 305 306 308 322 16 40 54 63 84 98 116 125 130 130 125 122 126 129 137 136 138 149 148
225 222 202 231 256 294 304 195 237 244 246 246 243 266 247 259 276 289 303 324 326 310 305 289 285 295 307 320 318 294 314 318 332 353 32 52 56 64 78 89 94 101 109 116 120 118 116 129 132 129 132 137 143 141
222 205 221 219 220 284 248 211 216 258 249 258 260 269 270 282 295 305 302 315 325 301 285 308 299 316 350 302 303 311 322 332 333 15 53 71 78 79 81 88 89 94 97 101 106 106 109 108 102 103 113 124 137 136
211 220 204 199 204 182 249 251 218 258 266 276 273 270 272 281 309 316 311 345 349 352 11 355 329 300 305 315 322 313 329 1 17 35 52 67 92 85 86 93 98 96 96 97 105 106 107 103 97 88 87 92 118 126
202 174 188 192 204 212 252 257 253 259 281 266 284 292 292 292 306 339 357 7 45 26 336 307 305 330 346 348 356 355 353 29 51 58 68 69 76 72 80 95 104 107 108 110 108 107 101 97 97 90 82 92 110 103
180 164 176 190 210 210 250 235 245 286 275 271 295 238 254 272 328 349 342 43 45 328 320 329 345 345 352 3 359 12 358 68 64 68 65 74 71 77 86 86 88 99 103 106 109 111 111 104 102 95 87 93 113 112
158 157 153 176 184 224 263 235 241 239 240 259 307 244 268 198 351 20 61 12 336 344 355 2 358 353 8 29 51 60 70 71 42 55 75 61 63 64 71 84 81 76 118 128 134 131 130 130 123 115 106 111 129 129
170 176 210 202 200 251 249 238 233 257 263 257 255 267 274 48 13 67 55 312 346 358 12 16 15 17 28 41 45 48 55 60 62 64 69 61 75 70 56 51 73 75 89 98 115 146 144 112 136 130 128 121 134 136
180 217 201 211 217 246 244 242 229 225 250 238 263 281 101 81 166 55 354 326 346 9 9 12 20 26 19 17 31 44 51 56 65 66 62 70 90 69 70 77 77 61 35 81 97 130 90 129 149 151 149 129 125 136
211 214 185 199 202 195 228 264 238 221 242 277 270 270 202 150 28 298 327 324 339 1 4 4 4 12 25 15 13 31 51 69 80 76 68 57 50 53 51 35 44 62 39 70 88 134 96 113 147 169 161 147 143 171
230 236 216 222 229 223 253 264 266 260 248 242 241 310 146 155 207 162 291 19 10 10 6 8 5 8 8 4 13 26 48 72 85 81 76 70 58 65 56 60 62 67 60 65 79 72 96 72 90 141 133 103 92 127
249 249 200 205 198 225 249 247 231 228 229 202 148 116 200 209 208 180 107 50 29 46 47 38 28 27 18 14 26 37 94 88 97 98 94 87 78 66 48 36 43 59 92 65 61 79 69 59 76 105 121 128 116 119
243 237 267 231 217 246 245 230 231 207 192 195 148 181 176 164 144 133 90 45 82 74 54 47 43 38 34 29 41 69 78 95 56 71 87 82 72 43 25 28 77 95 94 81 90 83 66 79 78 92 125 136 134 143
250 211 194 218 217 223 243 208 181 187 231 175 141 120 119 139 140 109 98 89 78 60 44 39 32 22 24 27 31 45 68 75 78 39 53 49 42 44 30 45 75 94 71 66 81 88 102 109 95 99 134 134 139 150
258 208 221 233 243 191 148 132 105 92 98 87 116 137 132 138 138 123 95 73 62 60 44 34 35 32 27 20 29 41 43 52 64 31 35 32 32 60 57 62 66 61 66 89 82 84 102 114 108 105 113 145 154 154
212 212 181 146 126 152 149 173 156 117 125 106 126 151 153 172 202 199 201 234 284 339 13 24 27 25 20 26 30 29 29 29 29 75 24 16 32 68 65 67 74 77 80 93 97 107 106 107 117 115 109 112 139 157
207 172 155 124 133 178 195 169 148 146 137 166 180 181 188 209 235 204 210 214 234 281 335 352 38 27 26 25 21 22 22 16 3 357 317 276 320 2 84 7 95 142 126 114 110 112 114 113 116 118 121 127 128 138
Wind_Speed_850mb
46 46 47 46 47 45 44 44 45 43 40 43 48 44 36 34 38 44 51 39 41 40 71 60 62 52 38 30 17 17 6 12 5 8 6 9 9 7 4 6 10 6 6 9 10 13 22 2 11 28 13 51 50 72
47 47 47 48 49 46 46 46 45 41 39 44 49 44 37 37 43 42 51 42 49 46 73 79 81 78 76 81 71 43 23 8 21 6 5 4 8 6 16 9 11 9 13 5 10 9 6 12 24 37 43 44 55 60
48 49 49 50 50 49 47 46 43 38 42 46 50 45 37 37 42 40 51 48 45 47 63 47 46 56 53 54 51 43 36 35 26 44 11 8 13 7 8 11 9 10 15 8 6 13 20 28 33 42 32 44 55 71
49 50 50 50 51 50 49 46 41 40 46 45 51 47 40 41 45 44 50 51 51 31 18 39 38 52 60 51 52 62 71 50 38 33 17 8 9 19 6 11 11 15 9 8 20 31 32 57 45 29 43 50 48 53
53 51 50 50 50 52 50 45 43 43 46 46 52 48 43 44 47 50 54 51 22 24 13 44 78 37 31 30 43 55 64 70 48 16 12 11 9 8 8 6 28 22 25 16 20 40 27 44 43 38 44 52 55 66
55 53 52 51 49 53 49 47 43 45 47 48 52 50 47 48 47 45 20 13 11 16 16 10 30 47 24 17 23 37 55 63 47 17 12 18 27 15 8 15 20 38 47 62 46 73 57 73 70 49 44 54 69 73
57 55 54 52 50 50 45 45 42 44 51 53 54 53 55 55 48 40 18 12 26 34 13 13 13 14 37 18 16 22 40 41 38 20 18 24 21 21 9 33 39 43 48 56 65 66 52 62 50 38 40 55 71 65
56 55 53 47 51 45 41 42 40 45 54 55 55 56 61 48 33 27 28 17 19 38 14 7 10 14 8 8 9 16 18 30 24 17 12 9 15 15 14 41 60 66 70 79 84 72 72 72 54 63 47 54 60 37
52 52 47 43 48 37 41 39 38 48 53 56 57 53 28 5 2 1 14 20 44 34 8 9 5 8 10 11 12 10 12 6 14 9 8 16 10 15 20 16 45 53 45 54 46 39 32 19 31 44 38 28 24 49
48 46 39 42 39 35 40 36 37 47 53 51 40 10 5 4 32 40 4 5 4 9 15 8 11 9 12 8 8 8 10 5 5 9 9 7 12 57 55 53 54 62 70 63 51 47 29 38 46 44 40 20 19 39
46 39 41 37 34 33 37 34 36 41 42 24 18 9 23 39 12 4 4 5 5 7 14 16 22 15 19 10 8 13 3 4 5 3 5 5 7 8 13 17 16 28 41 36 50 41 40 49 45 43 25 18 13 29
47 44 35 32 32 30 30 28 20 26 30 36 36 38 19 8 4 3 4 6 7 7 9 9 15 25 17 18 7 8 5 4 9 4 5 6 7 18 19 37 57 46 46 22 18 37 40 34 28 32 27 37 39 37
46 40 29 33 27 25 20 11 16 26 36 28 6 7 6 5 5 6 4 6 5 8 13 20 17 12 11 15 9 5 6 7 5 5 6 8 12 26 66 80 74 52 43 16 10 22 31 20 15 8 30 51 57 53
43 29 30 28 21 18 13 12 16 23 25 6 6 10 7 7 9 9 8 8 17 29 49 51 31 11 10 6 4 5 4 4 6 6 8 4 44 71 75 63 49 38 19 18 24 20 22 15 9 21 50 69 67 43
25 24 28 17 17 12 12 12 18 23 11 8 7 9 10 18 17 23 32 30 50 47 47 33 19 11 5 7 5 6 5 7 6 7 10 46 69 61 36 24 20 14 8 10 30 40 32 24 22 38 45 53 40 30
20 21 15 10 16 18 18 23 26 17 7 9 13 11 19 12 18 20 34 35 42 32 41 15 6 6 6 7 6 5 6 6 7 9 54 64 41 32 33 35 32 28 34 39 40 40 38 35 42 54 49 33 30 35
20 25 11 19 23 18 21 24 7 10 9 10 14 24 35 38 34 38 34 49 39 27 4 5 6 4 8 6 6 5 6 15 42 60 53 36 31 35 34 38 40 41 45 46 47 47 54 57 52 43 41 41 37 26
30 20 11 15 15 11 9 6 5 9 13 19 13 13 18 28 35 39 36 33 21 15 13 4 8 5 5 9 8 8 35 53 56 44 41 39 35 39 44 46 46 45 48 52 56 54 45 39 43 44 40 33 29 25
26 15 12 13 8 3 3 6 10 9 19 17 23 31 28 29 34 30 29 26 22 20 14 12 6 5 5 7 20 56 58 42 40 35 38 44 57 56 54 62 57 55 57 55 51 48 44 42 40 31 27 23 21 21
19 15 13 17 11 5 3 7 9 12 11 8 21 20 18 18 27 17 16 18 13 5 7 7 5 12 22 50 52 57 49 44 38 31 33 31 32 39 42 53 54 51 52 48 49 49 46 46 41 36 29 21 16 22
13 10 21 24 17 13 6 7 10 14 15 13 22 18 12 11 9 13 15 18 8 7 6 11 35 47 44 47 44 31 23 29 21 24 24 28 25 24 31 35 38 39 42 43 41 38 34 35 31 26 24 24 27 30
21 20 18 26 15 9 11 14 12 14 12 15 17 9 7 4 5 8 12 14 5 6 14 32 44 46 45 41 33 15 15 17 29 28 22 19 20 21 24 23 25 28 26 26 27 28 26 24 21 20 24 28 28 27
14 12 3 7 7 8 11 9 9 8 6 7 9 3 4 0 4 6 6 6 6 19 27 33 36 29 29 38 34 27 28 23 19 16 21 29 26 14 13 16 17 13 14 16 14 19 22 22 21 23 25 28 31 25
17 9 7 9 13 7 6 8 10 9 7 4 3 3 1 1 3 4 3 5 13 19 29 34 36 35 29 41 42 37 31 28 28 26 13 18 21 27 20 18 15 13 9 10 11 12 18 17 16 18 19 23 22 19
7 8 7 7 8 6 6 6 7 6 5 5 4 2 1 3 1 1 2 8 18 21 25 30 34 37 39 36 33 32 29 28 29 27 26 23 17 14 19 16 13 11 7 9 10 10 10 13 12 11 13 9 14 15
8 11 14 15 9 8 6 6 4 5 4 2 3 4 6 2 1 2 2 11 13 18 22 26 32 38 37 35 28 30 24 23 24 25 23 18 14 11 9 16 19 16 14 6 10 5 9 12 6 11 13 9 6 17
5 9 14 15 8 6 8 13 9 4 3 4 3 2 2 2 5 1 3 5 13 17 16 16 22 26 30 28 21 18 13 17 17 20 22 22 21 20 21 18 17 16 19 15 5 9 10 6 3 10 16 17 17 28
10 6 10 10 13 11 3 5 5 5 4 4 2 1 3 5 7 5 4 7 7 11 15 20 21 19 26 29 18 14 10 12 14 18 21 21 23 23 23 20 13 9 9 10 12 17 19 18 18 18 22 34 34 36
9 8 4 6 8 10 7 5 5 4 3 4 6 4 6 5 12 14 9 6 9 13 13 12 21 24 21 27 22 21 15 15 14 9 14 13 11 18 25 24 14 11 12 12 15 16 18 22 25 23 29 33 33 34
10 13 12 9 6 7 5 5 5 5 3 7 9 9 8 13 15 14 12 11 12 13 16 18 19 18 21 21 21 23 17 13 10 15 16 17 14 14 22 23 21 19 15 11 12 13 14 17 20 23 30 29 29 33
7 7 9 7 4 2 11 18 15 14 8 7 8 14 12 9 10 8 7 8 9 9 8 14 19 20 17 17 18 16 18 15 5 12 17 15 11 10 17 21 18 14 13 11 11 14 16 17 18 20 21 24 26 24
11 14 11 4 4 20 22 6 4 4 6 5 6 7 9 6 6 8 11 6 3 3 10 11 12 15 14 16 19 20 18 16 12 2 11 13 9 9 8 11 14 18 18 16 17 22 22 20 19 19 19 18 17 17
11 8 9 9 9 11 13 7 3 4 4 3 6 13 9 5 7 10 16 17 7 6 9 9 6 15 17 14 14 16 18 17 13 9 5 13 12 5 2 3 3 9 11 13 14 14 12 10 9 8 8 9 11 12
Wind_Direction_850mb
320 323 323 321 320 318 317 316 318 319 323 323 321 320 317 321 321 316 309 306 284 276 281 272 270 259 264 240 256 268 275 240 226 219 222 230 213 238 306 317 285 230 246 232 221 238 257 354 297 214 283 316 317 316
316 318 319 317 317 318 316 315 315 317 321 319 319 318 320 321 318 315 309 309 299 276 272 281 279 274 264 263 260 259 253 212 215 230 237 278 303 254 242 243 208 233 203 233 224 235 245 250 235 284 296 293 301 302
311 313 313 314 317 317 314 311 315 316 320 314 316 315 314 318 318 314 305 305 301 298 300 278 279 300 287 272 265 252 251 241 242 246 253 232 232 167 211 229 237 237 212 247 276 264 244 292 272 294 297 323 303 296
306 307 309 312 315 314 310 311 311 312 311 315 315 314 312 311 311 310 302 298 294 278 275 294 296 286 290 272 258 252 252 244 244 234 228 231 224 201 232 237 233 249 187 226 255 268 280 272 276 256 299 312 307 298
301 303 306 309 310 311 309 309 308 307 310 313 314 313 311 311 315 308 297 303 268 232 283 293 301 318 301 286 268 255 248 240 239 229 227 237 229 237 226 252 256 231 244 234 252 261 244 273 278 284 288 308 301 308
297 301 304 305 304 309 309 307 307 308 311 310 310 310 311 311 313 312 316 210 243 326 288 300 296 298 317 325 299 255 241 232 225 213 223 229 229 205 242 255 250 235 239 241 249 264 263 270 278 286 285 304 307 306
295 298 300 302 302 308 304 306 306 314 313 311 311 311 307 303 292 264 235 276 295 303 279 296 281 280 310 325 309 256 230 217 216 226 225 241 223 220 245 254 258 254 265 268 269 274 272 269 270 278 294 287 298 304
295 296 297 299 304 304 302 302 306 313 313 313 314 311 306 300 290 256 274 258 263 274 256 268 274 304 292 280 260 239 220 215 215 221 212 216 222 214 249 243 259 260 261 263 263 262 258 269 272 291 290 280 289 201
294 296 298 292 303 300 303 303 309 313 314 318 317 315 305 330 316 63 222 242 274 270 258 242 257 283 298 287 281 265 238 234 227 208 215 194 185 223 244 255 252 256 254 258 269 272 274 280 282 281 293 271 255 169
295 294 290 296 301 299 301 302 308 310 315 324 325 326 280 1 309 298 277 239 218 223 232 256 220 254 266 263 268 281 219 239 251 225 194 225 244 246 250 257 269 282 280 271 263 256 270 274 284 278 272 256 141 156
296 291 287 288 292 294 300 305 313 319 325 345 338 294 303 313 306 256 256 235 217 257 232 246 238 255 262 233 236 226 243 256 260 216 229 253 270 262 256 235 281 303 316 312 248 245 253 262 268 285 251 177 163 173
292 287 282 281 286 292 299 314 324 316 331 324 313 298 304 300 283 50 260 303 223 259 263 249 263 256 257 236 241 236 252 229 249 161 246 265 250 238 259 317 318 316 319 334 225 230 242 256 295 316 221 204 181 159
285 282 272 279 273 286 298 295 321 327 324 325 300 273 278 266 291 205 239 287 261 248 255 277 293 268 273 247 246 233 248 256 348 245 244 237 300 308 318 315 308 304 301 267 200 200 218 242 310 350 164 167 163 161
283 266 271 273 268 277 267 278 312 326 342 299 272 280 182 240 242 204 196 214 275 274 286 290 288 258 258 258 263 255 252 272 264 236 246 339 313 303 301 298 291 290 275 247 231 211 174 205 212 161 164 163 160 163
262 260 275 264 277 250 240 273 301 311 314 264 243 245 237 250 274 283 289 284 290 295 295 291 271 250 263 277 236 269 246 256 265 289 308 308 310 321 343 310 283 292 283 171 153 155 161 175 169 154 156 143 127 172
244 263 261 218 201 221 257 287 293 300 235 238 232 256 265 291 290 297 299 292 322 316 310 288 276 278 272 302 295 323 282 282 299 306 301 307 329 29 44 68 88 108 125 131 142 140 136 140 140 135 134 130 140 146
231 236 188 212 234 249 277 290 274 208 239 233 244 246 262 276 270 285 300 305 318 311 279 294 279 296 314 293 293 329 304 305 306 308 322 16 40 54 63 84 98 116 125 130 130 125 122 126 129 137 136 138 149 148
225 222 202 231 256 294 304 195 237 244 246 246 243 266 247 259 276 289 303 324 326 310 305 289 285 295 307 320 318 294 314 318 332 353 32 52 56 64 78 89 94 101 109 116 120 118 116 129 132 129 132 137 143 141
222 205 221 219 220 284 248 211 216 258 249 258 260 269 270 282 295 305 302 315 325 301 285 308 299 316 350 302 303 311 322 332 333 15 53 71 78 79 81 88 89 94 97 101 106 106 109 108 102 103 113 124 137 136
211 220 204 199 204 182 249 251 218 258 266 276 273 270 272 281 309 316 311 345 349 352 11 355 329 300 305 315 322 313 329 1 17 35 52 67 92 85 86 93 98 96 96 97 105 106 107 103 97 88 87 92 118 126
202 174 188 192 204 212 252 257 253 259 281 266 284 292 292 292 306 339 357 7 45 26 336 307 305 330 346 348 356 355 353 29 51 58 68 69 76 72 80 95 104 107 108 110 108 107 101 97 97 90 82 92 110 103
180 164 176 190 210 210 250 235 245 286 275 271 295 238 254 272 328 349 342 43 45 328 320 329 345 345 352 3 359 12 358 68 64 68 65 74 71 77 86 86 88 99 103 106 109 111 111 104 102 95 87 93 113 112
158 157 153 176 184 224 263 235 241 239 240 259 307 244 268 198 351 20 61 12 336 344 355 2 358 353 8 29 51 60 70 71 42 55 75 61 63 64 71 84 81 76 118 128 134 131 130 130 123 115 106 111 129 129
170 176 210 202 200 251 249 238 233 257 263 257 255 267 274 48 13 67 55 312 346 358 12 16 15 17 28 41 45 48 55 60 62 64 69 61 75 70 56 51 73 75 89 98 115 146 144 112 136 130 128 121 134 136
180 217 201 211 217 246 244 242 229 225 250 238 263 281 101 81 166 55 354 326 346 9 9 12 20 26 19 17 31 44 51 56 65 66 62 70 90 69 70 77 77 61 35 81 97 130 90 129 149 151 149 129 125 136
211 214 185 199 202 195 228 264 238 221 242 277 270 270 202 150 28 298 327 324 339 1 4 4 4 12 25 15 13 31 51 69 80 76 68 57 50 53 51 35 44 62 39 70 88 134 96 113 147 169 161 147 143 171
230 236 216 222 229 223 253 264 266 260 248 242 241 310 146 155 207 162 291 19 10 10 6 8 5 8 8 4 13 26 48 72 85 81 76 70 58 65 56 60 62 67 60 65 79 72 96 72 90 141 133 103 92 127
249 249 200 205 198 225 249 247 231 228 229 202 148 116 200 209 208 180 107 50 29 46 47 38 28 27 18 14 26 37 94 88 97 98 94 87 78 66 48 36 43 59 92 65 61 79 69 59 76 105 121 128 116 119
243 237 267 231 217 246 245 230 231 207 192 195 148 181 176 164 144 133 90 45 82 74 54 47 43 38 34 29 41 69 78 95 56 71 87 82 72 43 25 28 77 95 94 81 90 83 66 79 78 92 125 136 134 143
250 211 194 218 217 223 243 208 181 187 231 175 141 120 119 139 140 109 98 89 78 60 44 39 32 22 24 27 31 45 68 75 78 39 53 49 42 44 30 45 75 94 71 66 81 88 102 109 95 99 134 134 139 150
258 208 221 233 243 191 148 132 105 92 98 87 116 137 132 138 138 123 95 73 62 60 44 34 35 32 27 20 29 41 43 52 64 31 35 32 32 60 57 62 66 61 66 89 82 84 102 114 108 105 113 145 154 154
212 212 181 146 126 152 149 173 156 117 125 106 126 151 153 172 202 199 201 234 284 339 13 24 27 25 20 26 30 29 29 29 29 75 24 16 32 68 65 67 74 77 80 93 97 107 106 107 117 115 109 112 139 157
207 172 155 124 133 178 195 169 148 146 137 166 180 181 188 209 235 204 210 214 234 281 335 352 38 27 26 25 21 22 22 16 3 357 317 276 320 2 84 7 95 142 126 114 110 112 114 113 116 118 121 127 128 138